Weather History for KHVN - November, 2012

Change the Weather History Date:

Friday, November 9, 2012

  Actual Average Record
Temperature  
Mean Temperature 46 °F -  
Max Temperature 55 °F 50 °F 69 °F (2006)
Min Temperature 37 °F 36 °F 23 °F (1971)
Degree Days  
Heating Degree Days 19    
Moisture  
Dew Point 25 °F    
Average Humidity 45    
Maximum Humidity 60    
Minimum Humidity 25    
Precipitation  
Precipitation 0.00 in - - ()
Sea Level Pressure  
Sea Level Pressure 30.02 in    
Wind  
Wind Speed 9 mph (NW)    
Max Wind Speed 13 mph    
Max Gust Speed 21 mph    
Visibility 10 miles    
Events      
Averages and records for this station are not official NWS values.
T = Trace of Precipitation, MM = Missing Value Source: NWS Daily Summary

Daily Weather History Graph

Daily Weather History Graph

Search for Another Location

Airport or City:

Trip Planner

Search our weather history database for the weather conditions in past years. The results will help you decide how hot, cold, wet, or windy it might be!

Date:

Astronomy

Nov. 09, 2012 Rise Set
Actual Time 6:32 AM EST 4:37 PM EST
Civil Twilight 6:03 AM EST 5:06 PM EST
Nautical Twilight 5:30 AM EST 5:39 PM EST
Astronomical Twilight 4:58 AM EST 6:12 PM EST
Moon 1:26 AM EST (11/9) 1:51 PM EST (11/9)
Length of Visible Light 11h 02m
Length of Day
10h 04m
Waning Crescent, 23% of the Moon is Illuminated
Nov 9
Waning Crescent
Nov 13
New
Nov 20
First Quarter
Nov 28
Full
Dec 6
Last Quarter

Hourly Weather History & Observations

Time (EST) Temp. Windchill Dew Point Humidity Pressure Visibility Wind Dir Wind Speed Gust Speed Precip Events Conditions
12:53 AM 41.0 °F 33.9 °F 27.0 °F 57% 29.86 in 10.0 mi NW 12.7 mph 20.7 mph N/A   Partly Cloudy
1:53 AM 41.0 °F 36.4 °F 27.0 °F 57% 29.86 in 10.0 mi NNW 6.9 mph - N/A   Clear
2:53 AM 39.9 °F 34.5 °F 27.0 °F 60% 29.88 in 10.0 mi NW 8.1 mph 16.1 mph N/A   Clear
3:53 AM 39.9 °F 32.5 °F 26.1 °F 58% 29.89 in 10.0 mi NNW 12.7 mph 18.4 mph N/A   Clear
4:53 AM 39.0 °F 32.3 °F 25.0 °F 57% 29.92 in 10.0 mi NNW 10.4 mph - N/A   Clear
5:53 AM 37.9 °F 32.7 °F 25.0 °F 60% 29.94 in 10.0 mi NNW 6.9 mph - N/A   Clear
6:53 AM 37.9 °F 32.1 °F 24.1 °F 57% 29.96 in 10.0 mi NNW 8.1 mph - N/A   Clear
7:53 AM 41.0 °F 35.8 °F 23.0 °F 49% 29.99 in 10.0 mi NW 8.1 mph - N/A   Clear
8:53 AM 43.0 °F 36.8 °F 21.0 °F 42% 29.99 in 10.0 mi NNW 11.5 mph 17.3 mph N/A   Clear
9:53 AM 46.9 °F - 17.1 °F 30% 30.00 in 10.0 mi NNW 9.2 mph 20.7 mph N/A   Clear
10:53 AM 48.9 °F - 16.0 °F 27% 30.01 in 10.0 mi NNW 10.4 mph 18.4 mph N/A   Clear
11:53 AM 51.1 °F - 19.0 °F 28% 30.01 in 10.0 mi NNW 10.4 mph 16.1 mph N/A   Clear
12:53 PM 53.1 °F - 19.9 °F 27% 30.01 in 10.0 mi NNW 11.5 mph 19.6 mph N/A   Partly Cloudy
1:53 PM 54.0 °F - 21.0 °F 28% 30.01 in 10.0 mi NW 10.4 mph 16.1 mph N/A   Partly Cloudy
2:53 PM 55.0 °F - 19.9 °F 25% 30.01 in 10.0 mi NNW 12.7 mph 18.4 mph N/A   Clear
3:53 PM 54.0 °F - 21.9 °F 29% 30.03 in 10.0 mi NW 9.2 mph 17.3 mph N/A   Clear
4:53 PM 52.0 °F - 21.9 °F 31% 30.05 in 10.0 mi NW 5.8 mph - N/A   Clear
5:53 PM 46.9 °F - 21.9 °F 37% 30.08 in 10.0 mi Calm Calm - N/A   Clear
6:53 PM 48.9 °F - 26.1 °F 41% 30.12 in 10.0 mi NNW 10.4 mph 16.1 mph N/A   Clear
7:53 PM 48.9 °F - 30.9 °F 50% 30.13 in 10.0 mi NNW 5.8 mph - N/A   Clear
8:53 PM 48.0 °F - 32.0 °F 54% 30.14 in 10.0 mi Calm Calm - N/A   Clear
9:53 PM 48.0 °F - 34.0 °F 58% 30.15 in 10.0 mi West 5.8 mph - N/A   Clear
10:53 PM 48.0 °F - 34.0 °F 58% 30.17 in 10.0 mi Variable 3.5 mph - N/A   Overcast
11:53 PM 46.9 °F - 32.0 °F 56% 30.18 in 10.0 mi West 3.5 mph - N/A   Overcast